STARLINK-35902

Last updated on Wed Dec 31 2025 00:02:06 GMT+0000 (Coordinated Universal Time)

1 66626U 25271K 25364.48278178 .00108073 00000+0 26669-2 0 9997 2 66626 53.1608 103.3250 0001048 111.1946 248.9171 15.39697074 6943
UTC large
Height (km)
Speed (km/s)
/
Latitude / Longitude
Inclination (degrees)
Orbital Period (minutes)
Azimuth
Elevation
Range (km)
Doppler Factor

Next 0 passes for location: London (51.5072 / 0.1276)

Sorry there are no passes over London.